Tuesday, January 16, 2018, 12:23 PM EST
Back to Local

KFVE, Northern Aroostook Regional

Location: Saint Agatha, ME, United States Lat: 47.283
Local Time: 12:23 PM EST (17:23 GMT) Lon: -68.3
Time Zone: US/Eastern Elev: 987 ft

Show me the last for .
Show Decoded

2018-01-16 12:09 METAR KFVE 161709Z AUTO 21003KT 8SM OVC009 M16/M18 A3037 RMK AO2 T11611178 =
2018-01-16 11:53 METAR KFVE 161653Z AUTO 00000KT 10SM OVC010 M16/M18 A3038 RMK AO2 SLP313
                 T11611178 =
2018-01-16 10:53 METAR KFVE 161553Z AUTO 00000KT 10SM OVC011 M17/M19 A3040 RMK AO2 SLP321
                 T11721189 =
2018-01-16 10:25 METAR KFVE 161525Z AUTO 35003KT 10SM OVC011 M18/M20 A3042 RMK AO2 T11781200 =
2018-01-16 10:02 METAR KFVE 161502Z AUTO 34003KT 10SM OVC009 M18/M21 A3043 RMK AO2 T11831206 =
2018-01-16 09:53 METAR KFVE 161453Z AUTO 34003KT 10SM OVC010 M19/M21 A3044 RMK AO2 SLP334
                 T11891211 55007 =
2018-01-16 08:53 METAR KFVE 161353Z AUTO 35005KT 9SM OVC012 M20/M22 A3043 RMK AO2 SLP334
                 T12001217 =
2018-01-16 07:53 METAR KFVE 161253Z AUTO 34006KT 10SM OVC014 M21/M23 A3044 RMK AO2 SLP335
                 T12111228 =
2018-01-16 06:53 METAR KFVE 161153Z AUTO 34005KT 10SM OVC013 M22/M24 A3046 RMK AO2 SLP343
                 T12171239 11200 21228 55003 =
2018-01-16 06:48 METAR KFVE 161148Z AUTO 33006KT 10SM BKN013 OVC025 M21/M23 A3046 RMK AO2 =
2018-01-16 06:36 METAR KFVE 161136Z AUTO 31004KT 10SM BKN016 BKN025 OVC120 M21/M23 A3047 RMK AO2
                 T12111233 =
2018-01-16 05:53 METAR KFVE 161053Z AUTO 36004KT 10SM OVC120 M22/M24 A3044 RMK AO2 SLP339
                 T12171239 =
2018-01-16 04:53 METAR KFVE 160953Z AUTO 33006KT 10SM CLR M23/M24 A3047 RMK AO2 SLP346 T12281244
                 =
2018-01-16 03:53 METAR KFVE 160853Z AUTO 35004KT 10SM CLR M22/M24 A3047 RMK AO2 SLP346 T12171239
                 58020 =
2018-01-16 02:53 METAR KFVE 160753Z AUTO 36006KT 10SM CLR M22/M23 A3049 RMK AO2 SLP355 T12171233
                 =
2018-01-16 01:53 METAR KFVE 160653Z AUTO 35006KT 10SM CLR M22/M23 A3052 RMK AO2 SLP364 T12171233
                 =
2018-01-16 00:53 METAR KFVE 160553Z AUTO 35005KT 10SM CLR M21/M22 A3053 RMK AO2 SLP367 T12061222
                 11189 21206 58026 =
2018-01-15 23:53 METAR KFVE 160453Z AUTO 34004KT 10SM FEW016 M19/M22 A3056 RMK AO2 SLP377
                 T11941217 411721289 =
2018-01-15 23:46 METAR KFVE 160446Z AUTO VRB03KT 10SM SCT016 M19/M22 A3056 RMK AO2 T11941217 =
2018-01-15 22:53 METAR KFVE 160353Z AUTO 33006KT 10SM BKN016 M20/M22 A3059 RMK AO2 SLP388
                 T12001217 =
2018-01-15 21:53 METAR KFVE 160253Z AUTO 35006KT 10SM OVC015 M19/M21 A3061 RMK AO2 SLP396
                 T11941211 56025 =
2018-01-15 20:53 METAR KFVE 160153Z AUTO 36007KT 10SM OVC017 M19/M21 A3062 RMK AO2 SLP401
                 T11941211 =
2018-01-15 19:53 METAR KFVE 160053Z AUTO 35004KT 10SM OVC019 M19/M21 A3066 RMK AO2 SLP413
                 T11941211 =
2018-01-15 18:53 METAR KFVE 152353Z AUTO 34007KT 10SM OVC020 M20/M22 A3068 RMK AO2 SLP423 I1000
                 I6000 T12001217 11172 21200 58002 =
2018-01-15 18:30 METAR KFVE 152330Z AUTO 35006KT 10SM BKN022 M20/M22 A3069 RMK AO2 T12001217 =
2018-01-15 17:53 METAR KFVE 152253Z AUTO 36005KT 10SM CLR M19/M21 A3070 RMK AO2 SLP431 T11941211
                 =
2018-01-15 16:53 METAR KFVE 152153Z AUTO 36005KT 10SM CLR M18/M20 A3070 RMK AO2 SLP427 T11781200
                 =
2018-01-15 15:53 METAR KFVE 152053Z AUTO 01004KT 10SM CLR M17/M21 A3069 RMK AO2 SLP424 T11721206
                 55020 =
2018-01-15 14:53 METAR KFVE 151953Z AUTO 01009KT 10SM CLR M18/M21 A3069 RMK AO2 SLP424 T11781211
                 =
2018-01-15 13:53 METAR KFVE 151853Z AUTO 36006KT 10SM CLR M18/M22 A3072 RMK AO2 SLP433 T11781217
                 =
2018-01-15 12:53 METAR KFVE 151753Z AUTO 08005KT 10SM CLR M18/M22 A3075 RMK AO2 SLP445 I6000
                 T11831217 11178 21289 58023 =

Support USWX by starting your Amazon purchase here.